Hourly Data Report for September 28, 2017

All times are specified in Local Standard Time (LST). Add 1 hour to adjust for Daylight Saving Time where and when it is observed.

QIKIQTARJUAQ A
NUNAVUT

67°32'48.000" N
64°01'54.000" W
5.50 m
2400577
YVM

Download Data

Hourly Data (September 2017)
Hourly Data Report for September 28, 2017
Temp Definition
°C
Dew Point Temp Definition
°C
Rel Hum Definition
%
Wind Dir Definition
10's deg

Wind Spd Definition
km/h
Visibility Definition
km
Stn Press Definition
kPa
Hmdx Definition


Wind Chill Definition


Weather Definition


TIME
00:00 Legend Double Dagger -1.1 -4.1 80 13 9 16.1 100.60   -4 LegendNANA
01:00 Legend Double Dagger -1.1 -4.2 80 16 9 16.1 100.56   -4 LegendNANA
02:00 Legend Double Dagger -1.0 -4.1 79 17 9 16.1 100.55   -4 LegendNANA
03:00 Legend Double Dagger -1.1 -3.6 83 LegendMM 4 16.1 100.52   -2 LegendNANA
04:00 Legend Double Dagger -1.1 -3.6 83 LegendMM 4 16.1 100.51   -2 LegendNANA
05:00 Legend Double Dagger -1.2 -3.5 84 22 4 16.1 100.52   -3 LegendNANA
06:00 Legend Double Dagger -1.0 -3.9 81   0 16.1 100.51     LegendNANA
07:00 Legend Double Dagger -1.1 -3.5 84 16 5 16.1 100.49   -3 LegendNANA
08:00 Legend Double Dagger -1.6 -4.1 83 15 11 16.1 100.47   -5 LegendNANA
09:00 Legend Double Dagger -1.5 -3.8 85 20 5 16.1 100.44   -3 LegendNANA
10:00 Legend Double Dagger -0.9 -3.6 82 20 9 16.1 100.42   -4 LegendNANA
11:00 Legend Double Dagger -0.5 -3.4 81 19 5 16.1 100.40   -2 LegendNANA
12:00 Legend Double Dagger -0.3 -3.2 81 20 8 16.1 100.38   -3 LegendNANA
13:00 Legend Double Dagger -0.5 -3.1 83 22 5 16.1 100.37   -2 LegendNANA
14:00 Legend Double Dagger -0.7 -3.6 81 15 5 16.1 100.36   -2 LegendNANA
15:00 Legend Double Dagger -0.4 -3.1 82 12 4 16.1 100.38   -2 LegendNANA
16:00 Legend Double Dagger -2.2 -4.1 87 LegendMM 4 16.1 100.40   -4 LegendNANA
17:00 Legend Double Dagger -2.9 -4.5 89 LegendMM 4 16.1 100.39   -4 LegendNANA
18:00 Legend Double Dagger -2.2 -3.5 91   0 16.1 100.39     LegendNANA
19:00 Legend Double Dagger -2.5 -3.5 93 5 5 16.1 100.40   -4 LegendNANA
20:00 Legend Double Dagger -1.3 -2.9 89 LegendMM 4 16.1 100.38   -3 LegendNANA
21:00 Legend Double Dagger -1.2 -2.6 90 LegendMM 4 16.1 100.35   -3 LegendNANA
22:00 Legend Double Dagger -1.7 -3.1 91 6 4 16.1 100.35   -3 LegendNANA
23:00 Legend Double Dagger -2.4 -3.6 92 LegendMM 4 16.1 100.36   -4 LegendNANA

Notes on Data Quality.

Legend

  • E = Estimated
  • M = Missing
  • NA = Not Available
  • ‡ = Partner data that is not subject to review by the National Climate Archives
Date modified: